CAPE
278 362 247 453 738 455 499 359 711 730 928 838 947 978 810 861 995 1064 1020 887 707 677 808 807 492 630 600 792 559 511 620 331 175 535 697 428 7 0 0 0 0 0 0
288 401 434 418 648 528 382 628 399 454 871 880 774 604 623 928 915 957 966 841 774 544 499 390 509 459 772 838 583 466 463 408 243 217 321 314 87 0 0 0 0 0 0
360 275 531 523 535 442 382 523 477 292 315 1015 811 703 493 394 667 780 782 770 835 780 852 681 494 572 623 565 523 583 427 456 350 273 269 247 130 0 0 0 0 0 0
136 286 281 399 356 321 437 478 447 379 498 481 918 749 679 494 700 785 1034 1064 945 981 789 803 778 628 464 516 577 575 440 384 312 335 249 100 105 0 0 0 0 0 0
2 9 124 219 385 374 541 594 493 385 544 646 657 764 779 989 978 904 843 925 876 778 799 937 808 753 673 561 449 361 437 348 287 261 142 144 92 67 19 0 0 0 0
0 0 1 0 52 340 464 537 599 688 664 592 635 682 567 910 1173 998 935 844 854 832 726 625 755 686 436 369 329 273 444 418 260 232 195 146 98 76 119 50 0 0 0
0 0 0 0 0 121 340 460 488 441 538 571 620 647 642 709 659 690 737 600 564 542 766 657 504 643 568 268 106 37 0 0 42 153 227 194 141 143 87 101 21 0 0
1 0 0 0 0 37 267 461 456 344 517 517 473 655 694 739 572 520 454 430 506 587 706 757 708 611 425 281 47 1 0 0 0 0 0 0 0 0 2 37 56 22 0
29 4 1 0 0 0 112 242 246 348 375 415 575 627 491 149 37 63 136 261 326 353 256 111 225 222 70 253 162 0 0 0 0 0 0 0 0 0 0 0 0 0 0
23 46 70 28 7 1 0 158 211 232 281 151 120 142 76 4 0 0 21 84 132 77 0 0 0 1 5 69 45 0 0 0 0 0 0 0 0 0 0 0 0 0 0
248 165 85 45 83 80 73 48 49 19 10 0 0 1 1 2 1 0 0 20 22 23 0 0 0 0 0 0 1 0 0 0 0 0 0 0 0 0 0 0 0 0 0
172 83 40 22 0 2 0 0 0 0 0 0 0 0 3 3 0 0 0 0 0 0 0 0 0 0 0 0 0 0 0 0 0 0 0 0 0 0 0 0 0 0 0
85 58 6 0 0 0 0 0 0 0 0 0 0 1 2 3 1 0 0 0 0 0 0 0 0 0 0 0 0 0 0 0 0 0 0 0 0 0 0 0 0 0 0
23 0 0 0 0 0 0 0 0 1 1 1 1 2 1 2 1 2 1 3 1 1 0 0 0 0 0 0 0 0 0 0 0 0 0 0 0 0 0 0 0 0 0
0 0 0 0 0 0 0 0 0 0 0 0 1 1 0 0 1 1 1 1 1 1 1 1 1 1 1 1 1 1 1 0 0 0 0 0 0 0 0 0 0 0 0
0 0 0 0 0 0 0 0 0 0 0 0 0 0 0 0 0 0 1 1 2 0 0 1 1 1 0 1 1 1 0 0 0 0 0 0 0 0 0 0 0 0 0
0 0 0 0 0 0 0 0 0 0 0 0 0 0 0 0 0 0 0 0 0 0 0 0 0 0 0 0 0 0 0 0 0 0 0 0 0 0 0 0 0 0 0
0 0 0 0 0 0 0 0 0 0 0 0 0 0 0 0 0 0 0 0 0 0 0 0 0 0 0 0 0 0 0 0 0 0 0 0 0 0 0 0 0 0 0
0 0 0 0 0 0 0 0 0 0 0 0 0 0 0 0 0 0 0 0 0 0 0 0 0 0 0 0 0 0 0 0 0 0 0 0 0 0 0 0 0 0 0
0 0 0 0 0 0 0 0 0 0 0 0 0 0 0 0 0 0 0 0 0 0 0 0 0 0 0 0 0 0 0 0 0 0 0 0 0 0 0 0 0 0 0
0 0 0 0 0 0 0 0 0 0 0 0 0 0 0 0 0 0 0 0 0 0 0 0 0 0 0 0 0 0 0 0 0 0 0 0 0 0 0 0 0 0 0
0 0 0 0 0 0 0 0 0 0 0 0 0 0 0 0 0 0 0 0 0 0 0 0 0 0 0 0 0 0 0 0 0 0 0 0 0 0 0 0 0 0 0
0 0 0 0 0 0 0 0 0 0 0 0 0 0 0 0 0 0 0 0 0 0 0 0 0 0 0 0 0 0 0 0 0 0 0 0 0 0 0 0 0 0 0
0 0 0 0 0 0 0 0 0 0 0 0 0 0 0 0 0 0 0 0 0 0 0 0 0 0 0 0 0 0 0 0 0 0 0 0 0 0 0 0 0 0 0
0 0 0 1 1 2 0 0 0 0 0 0 0 0 0 0 0 0 0 0 0 0 0 0 0 0 0 0 0 0 0 0 0 0 0 0 0 0 0 0 0 0 0
0 0 0 0 0 0 5 0 0 0 0 0 0 0 0 0 0 0 0 0 0 0 0 0 0 0 0 0 0 0 0 0 0 0 0 0 0 0 0 0 0 0 0
CIN
-97 -92 -106 -71 -40 -42 -38 -37 -35 -33 -34 -44 -50 -44 -28 -28 -26 -20 -18 -20 -34 -37 -31 -34 -46 -39 -36 -31 -42 -46 -43 -40 -25 -30 -51 -115 -63 -0 -0 -0 -0 -0 -0
-111 -92 -87 -92 -64 -49 -51 -43 -60 -33 -42 -38 -50 -44 -42 -38 -33 -28 -23 -18 -18 -31 -36 -32 -33 -47 -25 -21 -25 -24 -30 -35 -31 -29 -38 -52 -113 -0 -0 -0 -0 -0 -0
-89 -106 -67 -45 -61 -69 -67 -51 -51 -50 -52 -30 -39 -40 -44 -48 -33 -36 -33 -28 -18 -21 -22 -28 -34 -32 -25 -23 -23 -22 -26 -32 -37 -31 -25 -61 -94 -0 -0 -0 -0 -0 -0
-123 -70 -45 -29 -51 -82 -62 -57 -58 -51 -42 -42 -31 -38 -40 -46 -39 -36 -25 -23 -21 -19 -27 -34 -28 -33 -40 -23 -25 -28 -31 -28 -32 -30 -37 -43 -53 -0 -0 -0 -0 -0 -0
-53 -81 -90 -57 -51 -43 -37 -43 -49 -57 -41 -38 -31 -35 -42 -26 -28 -30 -27 -19 -20 -29 -26 -22 -27 -30 -26 -34 -32 -31 -26 -25 -28 -26 -40 -50 -56 -68 -91 -0 -0 -0 -0
-0 -0 -82 -0 -100 -56 -29 -32 -33 -34 -37 -39 -28 -30 -37 -31 -22 -22 -22 -26 -26 -26 -22 -25 -28 -36 -52 -52 -44 -54 -43 -31 -43 -39 -44 -41 -48 -52 -51 -57 -0 -0 -0
-0 -0 -0 -0 -0 -95 -52 -22 -24 -27 -29 -26 -34 -32 -31 -33 -33 -29 -28 -38 -48 -54 -26 -28 -30 -24 -27 -64 -113 -97 -0 -0 -81 -68 -42 -43 -61 -78 -88 -45 -73 -0 -0
-53 -72 -32 -0 -11 -153 -71 -24 -21 -31 -30 -28 -24 -26 -25 -23 -37 -35 -38 -41 -33 -32 -30 -21 -19 -20 -38 -51 -99 -13 -0 -0 -0 -0 -0 -0 -0 -0 -12 -29 -49 -16 -0
-13 -47 -59 -0 -0 -0 -111 -27 -33 -23 -24 -34 -31 -22 -26 -121 -211 -178 -120 -68 -47 -39 -66 -107 -56 -57 -120 -57 -58 -0 -0 -0 -0 -0 -0 -0 -0 -0 -0 -0 -0 -0 -0
-185 -108 -46 -47 -111 -15 -18 -14 -52 -57 -56 -94 -126 -139 -174 -201 -0 -0 -247 -145 -80 -103 -0 -0 -0 -143 -228 -90 -77 -0 -0 -0 -0 -0 -0 -0 -0 -0 -0 -0 -0 -0 -0
-64 -76 -100 -66 -47 -89 -26 -34 -82 -148 -171 -0 -0 -0 -0 -0 -0 -0 -0 -150 -176 -109 -0 -0 -0 -0 -0 -0 -24 -0 -0 -0 -0 -0 -0 -0 -0 -0 -0 -0 -0 -0 -0
-46 -58 -70 -92 -0 -62 -0 -0 -0 -0 -0 -0 -0 -0 -0 -0 -0 -0 -0 -0 -0 -0 -0 -0 -0 -0 -0 -0 -0 -0 -0 -0 -0 -0 -0 -0 -0 -0 -0 -0 -0 -0 -0
-75 -67 -53 -0 -0 -0 -0 -0 -0 -0 -0 -0 -0 -0 -0 -0 -0 -0 -0 -0 -0 -0 -0 -0 -0 -0 -0 -0 -0 -0 -0 -0 -0 -0 -0 -0 -0 -0 -0 -0 -0 -0 -0
-122 -0 -0 -0 -0 -0 -0 -0 -0 -0 -0 -0 -0 -0 -0 -0 -0 -0 -0 -0 -0 -0 -0 -0 -0 -0 -0 -0 -0 -0 -0 -0 -0 -0 -0 -0 -0 -0 -0 -0 -0 -0 -0
-0 -0 -0 -0 -0 -0 -0 -0 -0 -0 -0 -0 -0 -0 -0 -0 -0 -0 -0 -0 -0 -0 -0 -0 -0 -0 -0 -0 -0 -0 -0 -0 -0 -0 -0 -0 -0 -0 -0 -0 -0 -0 -0
-0 -0 -0 -0 -0 -0 -0 -0 -0 -0 -0 -0 -0 -0 -0 -0 -0 -0 -0 -0 -0 -0 -0 -0 -0 -0 -0 -0 -0 -0 -0 -0 -0 -0 -0 -0 -0 -0 -0 -0 -0 -0 -0
-0 -0 -0 -0 -0 -0 -0 -0 -0 -0 -0 -0 -0 -0 -0 -0 -0 -0 -0 -0 -0 -0 -0 -0 -0 -0 -0 -0 -0 -0 -0 -0 -0 -0 -0 -0 -0 -0 -0 -0 -0 -0 -0
-0 -0 -0 -0 -0 -0 -0 -0 -0 -0 -0 -0 -0 -0 -0 -0 -0 -0 -0 -0 -0 -0 -0 -0 -0 -0 -0 -0 -0 -0 -0 -0 -0 -0 -0 -0 -0 -0 -0 -0 -0 -0 -0
-0 -0 -0 -0 -0 -0 -0 -0 -0 -0 -0 -0 -0 -0 -0 -0 -0 -0 -0 -0 -0 -0 -0 -0 -0 -0 -0 -0 -0 -0 -0 -0 -0 -0 -0 -0 -0 -0 -0 -0 -0 -0 -0
-0 -0 -0 -0 -0 -0 -0 -0 -0 -0 -0 -0 -0 -0 -0 -0 -0 -0 -0 -0 -0 -0 -0 -0 -0 -0 -0 -0 -0 -0 -0 -0 -0 -0 -0 -0 -0 -0 -0 -0 -0 -0 -0
-0 -0 -0 -0 -0 -0 -0 -0 -0 -0 -0 -0 -0 -0 -0 -0 -0 -0 -0 -0 -0 -0 -0 -0 -0 -0 -0 -0 -0 -0 -0 -0 -0 -0 -0 -0 -0 -0 -0 -0 -0 -0 -0
-0 -0 -0 -0 -0 -0 -0 -0 -0 -0 -0 -0 -0 -0 -0 -0 -0 -0 -0 -0 -0 -0 -0 -0 -0 -0 -0 -0 -0 -0 -0 -0 -0 -0 -0 -0 -0 -0 -0 -0 -0 -0 -0
-0 -0 -0 -0 -0 -0 -0 -0 -0 -0 -0 -0 -0 -0 -0 -0 -0 -0 -0 -0 -0 -0 -0 -0 -0 -0 -0 -0 -0 -0 -0 -0 -0 -0 -0 -0 -0 -0 -0 -0 -0 -0 -0
-0 -0 -0 -0 -0 -0 -0 -0 -0 -0 -0 -0 -0 -0 -0 -0 -0 -0 -0 -0 -0 -0 -0 -0 -0 -0 -0 -0 -0 -0 -0 -0 -0 -0 -0 -0 -0 -0 -0 -0 -0 -0 -0
-0 -0 -0 -47 -39 -40 -0 -0 -0 -0 -0 -0 -0 -0 -0 -0 -0 -0 -0 -0 -0 -0 -0 -0 -0 -0 -0 -0 -0 -0 -0 -0 -0 -0 -0 -0 -0 -0 -0 -0 -0 -0 -0
-0 -0 -0 -0 -3 -0 -46 -2 -0 -0 -0 -0 -0 -0 -0 -0 -0 -0 -0 -0 -0 -0 -0 -0 -0 -0 -0 -0 -0 -0 -0 -0 -0 -0 -0 -0 -0 -0 -0 -0 -0 -0 -0
Wind_Speed
21 38 33 22 12 11 11 13 12 22 17 15 5 2 1 5 12 7 4 9 10 11 12 9 10 13 16 13 11 17 18 13 12 13 15 10 9 9 11 12 13 15 16
13 26 33 13 11 8 8 6 7 12 10 11 14 12 14 10 9 8 10 7 7 10 8 10 7 14 17 25 18 16 14 14 14 18 10 9 12 7 9 10 12 13 15
20 16 27 25 13 12 11 12 8 7 9 11 6 9 14 7 13 15 15 12 9 10 10 10 9 12 6 11 20 13 11 10 12 14 15 13 15 7 9 11 12 13 15
21 22 21 31 26 20 14 13 11 14 13 9 10 11 12 10 11 12 11 10 7 7 9 9 4 11 16 21 23 9 11 12 15 17 17 15 15 8 8 8 10 12 11
21 22 23 26 30 19 16 15 18 19 17 16 16 20 23 21 17 11 13 14 13 12 12 12 11 12 13 15 16 15 12 14 17 17 17 16 15 11 8 10 11 11 10
24 24 21 23 26 32 18 14 17 19 22 23 20 19 19 19 18 17 16 18 17 17 17 16 15 15 16 17 16 15 15 14 15 16 15 15 16 18 14 12 12 14 15
22 25 24 25 26 28 33 18 17 17 16 18 20 18 18 19 16 13 13 17 21 18 13 18 20 18 15 15 16 16 19 21 20 19 19 20 20 19 18 15 11 12 15
24 30 31 30 27 28 30 26 20 20 16 17 19 18 17 19 21 18 15 17 20 19 17 17 17 18 17 15 15 17 19 20 20 19 19 21 23 25 22 22 20 16 19
7 14 24 28 28 29 29 34 24 23 22 20 20 22 21 19 19 19 21 21 23 21 19 18 19 18 18 16 15 17 19 19 18 17 18 19 21 23 22 20 20 17 21
12 10 15 22 28 23 33 34 27 24 22 19 17 17 17 17 18 18 20 21 22 22 22 22 22 19 20 17 15 15 17 17 17 17 19 19 22 23 23 22 23 20 21
12 6 10 13 14 18 20 25 20 18 17 18 18 19 18 18 20 19 20 22 24 25 24 25 25 24 22 20 16 17 20 16 17 18 19 20 22 23 23 23 22 22 23
11 10 11 11 11 12 12 19 19 17 18 19 19 20 22 23 24 24 23 22 21 22 22 22 22 23 21 20 19 16 16 15 17 17 18 19 20 22 22 21 20 20 18
10 10 10 11 13 13 15 17 18 21 22 22 20 20 21 21 21 22 21 21 18 18 19 17 17 18 18 16 13 13 12 13 14 14 15 16 17 18 18 18 18 17 16
9 9 9 10 12 14 16 16 14 14 15 15 17 18 19 20 18 18 17 16 14 13 13 14 15 14 13 11 12 12 11 11 12 12 15 14 14 15 15 16 15 15 15
9 9 9 11 12 15 15 13 13 16 14 11 13 12 13 15 14 14 13 13 12 12 12 13 13 14 13 14 14 13 13 14 14 14 13 13 14 14 15 15 15 15 17
9 11 11 11 12 12 11 11 14 14 14 14 11 11 14 14 13 12 12 11 11 12 13 14 15 14 14 14 14 13 13 13 14 14 13 14 15 16 16 16 16 16 14
9 11 11 11 11 11 12 12 12 13 13 12 12 13 12 12 12 11 10 11 13 14 13 13 13 13 13 14 13 13 13 13 15 16 16 16 16 17 18 17 16 14 13
10 9 10 10 10 10 11 12 12 13 13 13 15 14 14 13 13 13 13 14 15 15 15 14 14 13 13 14 15 15 16 16 15 15 15 15 15 16 15 15 13 12 12
9 10 10 10 9 9 10 10 12 13 13 14 14 14 13 13 14 14 15 16 17 16 16 15 15 15 15 15 15 15 14 15 16 16 15 16 15 15 14 14 14 13 12
12 10 10 10 9 9 9 10 11 13 13 13 14 14 13 14 15 15 14 15 16 16 16 16 15 14 14 14 15 15 15 15 15 15 16 16 15 16 15 13 13 13 13
11 10 9 9 9 10 11 11 11 12 13 13 13 12 11 13 13 14 13 14 14 15 16 14 14 14 14 14 15 15 16 16 15 15 14 15 13 15 13 12 13 13 12
5 7 8 9 9 9 11 11 8 8 9 11 13 13 10 11 13 14 14 14 13 14 16 11 10 12 12 12 12 13 13 14 15 14 15 13 13 14 14 13 13 14 15
11 7 8 9 7 6 8 8 8 7 7 6 6 6 7 8 7 9 11 10 12 13 12 9 8 10 10 9 10 11 13 14 13 12 13 13 14 15 15 16 15 15 16
7 9 13 19 5 5 3 6 7 7 7 5 5 7 8 8 9 8 10 11 11 12 11 10 9 10 11 10 11 12 12 13 12 10 12 14 15 15 15 16 16 15 15
8 13 15 18 10 3 3 6 11 15 15 11 8 7 8 10 9 9 9 9 10 10 10 9 10 11 11 11 11 12 12 13 12 11 12 14 15 15 15 16 15 15 16
6 9 13 16 15 9 7 10 13 15 15 12 9 7 8 8 10 12 15 13 11 11 10 10 10 9 9 10 11 10 10 11 11 8 10 12 13 14 15 16 17 17 18
Wind_Direction
236 214 189 175 172 172 259 197 274 257 265 272 320 121 120 316 296 315 344 320 323 321 325 332 337 335 326 339 354 330 328 355 303 6 354 30 22 27 15 20 27 27 26
255 252 242 238 190 201 208 227 270 277 281 281 281 286 284 298 304 315 314 325 330 324 330 334 351 333 325 287 322 333 341 343 343 327 3 7 356 17 21 20 15 15 20
262 262 255 254 241 236 240 253 252 260 276 281 283 293 294 297 297 298 301 307 315 319 322 324 333 330 355 214 314 335 344 346 340 337 336 343 338 14 4 2 3 3 4
269 266 266 253 255 255 252 245 252 267 275 268 275 283 293 298 299 302 306 312 315 322 322 320 317 323 321 313 311 329 330 333 332 329 327 328 331 343 346 348 348 352 1
275 271 266 264 258 258 253 257 261 265 268 273 277 280 279 283 289 296 301 303 305 310 314 317 317 317 322 325 322 325 328 325 322 321 325 326 325 327 318 330 328 335 340
275 265 268 269 266 258 260 249 260 265 266 268 274 279 283 285 288 293 297 298 301 300 304 310 314 314 315 317 321 323 323 319 319 319 320 322 318 318 322 321 323 323 320
256 253 266 272 272 268 260 258 258 263 263 265 272 275 280 285 289 292 296 299 298 303 301 305 306 312 314 317 318 320 318 317 317 316 315 314 315 318 318 315 312 315 315
259 255 261 267 282 269 267 262 259 263 259 263 271 274 280 285 287 291 295 298 301 305 305 306 306 307 310 312 314 317 319 320 320 319 318 317 313 311 310 310 309 310 316
300 275 282 273 270 275 267 263 262 263 265 268 273 275 280 285 290 292 294 296 298 301 304 307 304 306 310 310 307 309 313 319 329 329 327 326 326 324 320 314 308 304 308
54 348 320 298 269 281 279 258 262 264 267 268 272 277 280 285 291 295 296 298 298 301 303 303 304 307 307 308 305 304 306 309 319 322 322 326 324 327 327 320 311 303 305
353 29 5 340 292 285 275 269 272 267 266 271 275 281 285 289 293 297 300 298 298 298 298 300 303 305 305 307 305 302 303 306 314 319 320 325 323 322 325 326 325 319 309
360 13 9 19 347 328 322 289 279 277 271 271 276 282 288 291 296 299 303 301 303 301 300 304 306 309 310 308 306 306 308 307 312 319 323 323 327 327 327 332 334 332 331
9 8 17 18 25 341 319 310 311 290 280 275 275 279 288 295 305 310 314 310 311 309 306 310 314 315 316 320 320 322 321 315 317 324 328 335 337 338 341 343 346 348 347
358 9 5 10 9 5 352 345 326 322 302 293 280 280 291 292 306 314 323 329 336 333 327 327 331 337 342 342 341 340 339 330 336 334 324 341 347 347 349 352 351 353 352
344 349 346 345 345 345 351 354 5 18 322 326 303 301 305 305 316 326 330 336 343 346 349 343 335 329 328 328 334 336 335 329 330 336 338 342 344 344 343 345 338 337 331
335 330 333 336 340 346 353 351 349 359 3 332 18 340 320 317 319 332 337 355 5 353 343 333 333 333 330 328 331 331 336 335 339 338 339 340 338 337 340 339 342 332 332
333 321 323 331 332 331 331 331 332 341 353 358 356 350 5 347 356 358 360 352 347 343 343 338 336 339 336 335 335 335 336 333 329 327 330 331 331 331 332 333 338 343 344
354 357 336 326 327 330 332 328 324 321 322 327 323 329 331 333 335 337 335 339 331 337 334 332 333 336 336 333 328 327 326 329 331 338 332 334 338 338 340 341 345 342 344
15 3 357 354 351 340 337 338 330 328 328 324 323 328 338 338 335 333 333 331 327 328 329 330 333 334 333 335 333 333 335 332 333 335 336 339 342 342 342 343 344 343 341
350 9 15 11 7 0 354 346 340 334 332 328 326 328 337 336 328 326 332 329 328 330 334 335 338 341 340 337 336 335 335 336 336 336 336 338 339 340 340 343 345 342 339
5 12 33 22 13 2 353 349 345 338 333 335 334 341 350 337 339 338 336 336 337 338 335 336 342 343 342 341 339 336 336 336 337 338 340 340 347 344 346 344 343 346 345
74 52 30 20 20 10 355 356 16 6 355 349 343 340 354 347 343 343 342 338 340 342 340 352 354 355 356 357 356 352 349 346 345 345 343 346 345 345 344 340 338 337 335
29 90 124 151 130 60 24 27 22 27 29 43 43 52 52 48 42 15 4 8 357 353 0 14 11 5 2 3 359 356 346 341 340 344 344 343 338 336 334 330 330 330 331
37 14 355 334 10 12 36 2 358 355 354 352 350 348 349 355 360 0 356 359 2 6 12 13 14 8 7 1 354 351 347 346 347 347 344 340 336 335 334 332 331 329 330
348 332 335 336 355 3 358 346 338 329 328 329 321 327 328 331 338 342 346 348 348 349 353 357 353 351 352 353 351 351 350 350 349 349 346 342 340 338 336 335 334 332 329
356 339 327 329 334 346 328 327 330 332 329 332 321 316 319 315 315 321 325 326 328 331 333 336 336 334 338 339 339 338 341 345 342 342 342 341 343 341 338 333 329 326 326